Regional Weather Roundup
Issued by NWS State College, PA

Home | Current Version | Previous Version | Text Only | Print | Product List | Glossary On
Versions: 1 2 3 4 5 6 7 8 9 10 11 12 13 14 15 16 17 18 19 20 21 22 23 24 25 26 27 28 29 30 31 32 33 34 35 36 37 38 39 40 41 42 43 44 45 46 47 48 49 50
000
ASUS41 KCTP 190410
RWRCTP

REGIONAL WEATHER ROUNDUP
NATIONAL WEATHER SERVICE STATE COLLEGE PA
1100 PM EST THU DEC 18 2014

Note: "fair" indicates few or no clouds below 12,000 feet with no
significant weather and/or obstructions to visibility.

* = STATION THAT DOES NOT REPORT PRECIPITATION /E.G. RAIN...SNOW...ETC/
    THUNDER OR FOG.

PAZ002>004-007>009-013>016-020>023-029>032-190500-
WESTERN PENNSYLVANIA

CITY           SKY/WX    TMP DP  RH WIND       PRES   REMARKS
ERIE           CLOUDY    32  25  75 NW10      30.12R
MEADVILLE      CLOUDY    28  25  88 W7        30.09R FOG
FRANKLIN*      CLOUDY    27  25  93 W8        30.10R
NEW CASTLE       N/A     27  27 100 CALM      30.15R FOG
BEAVER COUNTY  NOT AVBL
BUTLER*        CLOUDY    27  23  86 SW8       30.14S
PITTSBURGH INT FLURRIES  28  22  78 W8        30.14R
PITTSBURGH     CLOUDY    27  20  75 W9        30.13R
INDIANA*       CLOUDY    28  25  86 W7        30.13S
LATROBE        CLOUDY    28  25  86 SW7       30.15S
WASHINGTON CO* NOT AVBL
$$

PAZ004>006-010>012-017>019-024>028-033>037-041-042-045-046-049>053-190500-
CENTRAL PENNSYLVANIA

CITY           SKY/WX    TMP DP  RH WIND       PRES   REMARKS
BRADFORD       CLOUDY    26  23  88 W12       30.00R FOG
DUBOIS         CLOUDY    26  25  96 W9        30.04S FOG
CLEARFIELD     CLOUDY    28  23  81 W7        30.05S
JOHNSTOWN      CLOUDY    23  20  88 W12       30.03S WCI  12
ALTOONA        CLOUDY    28  22  78 NW15      30.06F
STATE COLLEGE  CLOUDY    30  24  78 W9        30.06S
WILLIAMSPORT   CLOUDY    34  25  69 W8        30.04S
SELINSGROVE    CLOUDY    35  25  66 W7        30.07S
FT INDIANTOWN  CLOUDY    34  24  66 W10       30.06S
CAPITAL CITY   CLOUDY    35  24  64 W8        30.08S
HARRISBURG     CLOUDY    34  23  64 NW10      30.07S
YORK           CLOUDY    34  24  67 NW6       30.07S
$$

PAZ038>040-043-044-047-048-054-055-060>062-067>071-190500-
EASTERN PENNSYLVANIA

CITY           SKY/WX    TMP DP  RH WIND       PRES   REMARKS
SCRANTON       CLOUDY    34  23  64 NW8       29.98F
MOUNT POCONO   CLOUDY    29  22  75 NW14G23   29.92F
ALLENTOWN      CLOUDY    37  25  61 NW9       30.01S
QUAKERTOWN*    CLOUDY    36  27  69 W5        30.02S
READING        CLOUDY    36  25  64 W8        30.04R
LANCASTER      CLOUDY    34  24  67 W10       30.06S
COATESVILLE    CLOUDY    36  28  75 NW13      30.04S
POTTSTOWN      CLOUDY    35  26  69 W6        30.04S
BLUE BELL      CLOUDY    36  28  75 W5        30.02S
DOYLESTOWN     CLOUDY    34  26  72 W5        30.00S
WILLOW GROVE   NOT AVBL
NORTH PHILA    CLOUDY    38  24  57 W12       30.04F
PHILADELPHIA   CLOUDY    38  25  59 W9        30.05F
$$


USA.gov is the U.S. government's official web portal to all federal, state and local government web resources and services.